Skip Page Navigation
NASA JPL Caltech
NASA Logo - Jet Propulsion Laboratory + View the NASA Portal
+ Center for Near-Earth Object Studies
JPL Home Earth Solar System Stars & Galaxies Technology
JPL Solar System Dynamics
BODIES ORBITS EPHEMERIDES TOOLS PHYSICAL DATA DISCOVERY FAQ SITE MAP
JPL Small-Body Database Browser
Search: [ help ]  
32267 Hermannweyl (2000 PS1)
Classification: Main-belt Asteroid          SPK-ID: 2032267
Ephemeris | Orbit Diagram | Orbital Elements | Mission Design | Physical Parameters | Discovery Circumstances ]

[ hide orbit diagram ]

For accurate long-term ephemerides, please instead use our Horizons system.This orbit viewer was implemented using two-body methods, and hence should not be used for determining accurate long-term trajectories (over several years or decades) or planetary encounter circumstances.


Orbital Elements at Epoch 2459200.5 (2020-Dec-17.0) TDB
Reference: JPL 30 (heliocentric ecliptic J2000)
 Element Value Uncertainty (1-sigma)   Units 
e .08449275477230943 2.9821e-08  
a 2.792604511278989 1.4909e-08 au
q 2.556649663131449 8.2578e-08 au
i 15.89973074766476 3.8066e-06 deg
node 142.9491820674168 1.2093e-05 deg
peri 239.8761301678276 2.8473e-05 deg
M 76.07528065549432 2.3913e-05 deg
tp 2458840.291760954895
(2019-Dec-22.79176096)
0.0001136 TDB
period 1704.561126017645
4.67
1.365e-05
3.737e-08
d
yr
n .2111980582597619 1.6913e-09 deg/d
Q 3.028559359426529 1.6168e-08 au
  Orbit Determination Parameters
   # obs. used (total)      1072  
   data-arc span      15785 days (43.22 yr)  
   first obs. used      1977-11-04  
   last obs. used      2021-01-22  
   planetary ephem.      DE431  
   SB-pert. ephem.      SB431-N16  
   condition code      0  
   norm. resid. RMS      .52156  
   source      ORB  
   producer      Otto Matic  
   solution date      2021-Feb-24 03:46:47  

Additional Information
 Earth MOID = 1.58995 au 
 Jupiter MOID = 2.37532 au 
 T_jup = 3.267 
[ show covariance matrix ]

Ephemeris | Orbit Diagram | Orbital Elements | Mission Design | Physical Parameters | Discovery Circumstances ]

Physical Parameter Table
Parameter Symbol Value Units Sigma Reference Notes
absolute magnitude H 14.6   n/a MPO452624  
diameter diameter 3.944 km 0.176 urn:nasa:pds:neowise_diameters_albedos::2.0[mainbelt] (http://adsabs.harvard.edu/abs/2012ApJ...759L...8M)  
geometric albedo albedo 0.164   0.030 urn:nasa:pds:neowise_diameters_albedos::2.0[mainbelt] (http://adsabs.harvard.edu/abs/2012ApJ...759L...8M)  

32267 Hermannweyl           Discovered 2000 Aug. 1 by P. G. Comba at Prescott.
Hermann Weyl (1885-1955) was a German-American pure and applied mathematician. His work, from the study of the Riemann surface to the application of group theory to quantum mechanics, shows his ability to find connections between previously unrelated subjects.
NOTE: some special characters may not display properly (any characters within {} are an attempt to place the proper accent above a character)
Reference: 20020328/MPCPages.arcLast Updated: 2003-10-02
Ephemeris | Orbit Diagram | Orbital Elements | Mission Design | Physical Parameters | Discovery Circumstances ]
ABOUT SSD CREDITS/AWARDS PRIVACY/COPYRIGHT GLOSSARY LINKS
FirstGov 2021-Mar-02 18:16 UT
(server date/time)  
NASA Home Page
Site Manager:   Ryan S. Park
Webmaster  Alan B. Chamberlin